Regional Weather Roundup
Issued by NWS

Home | Current Version | Previous Version | Graphics & Text | Print | Product List | Glossary On
Versions: 1 2 3 4 5 6 7 8 9 10 11 12 13 14 15 16 17 18 19 20 21 22 23 24 25 26 27 28 29 30 31 32 33 34 35 36 37 38 39 40 41 42 43 44 45 46 47 48 49 50
000
ASUS43 KDMX 010401
RWRIA

WEATHER ROUNDUP FOR IOWA
NATIONAL WEATHER SERVICE DES MOINES IA
1100 PM CDT SUN APR 30 2017

NOTE: "FAIR" INDICATES FEW OR NO CLOUDS BELOW 12,000 FEET WITH NO
SIGNIFICANT WEATHER AND/OR OBSTRUCTIONS TO VISIBILITY.

* - THESE STATIONS ARE NOT NWS STATIONS...THUS NOT UNDER NWS
QUALITY CONTROL.  THEY ALSO DO NOT REPORT WEATHER SUCH
AS PRECIPITATION OR FOG.

IAZ001>003-012>014-020>022-031>034-043>046-010500-
   NORTHWEST IOWA

CITY           SKY/WX    TMP DP  RH WIND       PRES   REMARKS
CARROLL *      LGT RAIN  41  41 100 NE13      29.50F
CHEROKEE *     CLOUDY    38  38  99 NE8       29.57S WCI  32
DENISON *      CLOUDY    41  39  93 NE10      29.52F FOG
ORANGE CITY *  LGT RAIN  34  34 100 NE10G28   29.55R WCI  26
SHELDON *      MIX PCPN  34  32  93 N29G35    29.50F WCI  20
SIOUX CITY     LGT RAIN  38  37  97 NE20G26   29.57F WCI  28
SPENCER        LGT RAIN  36  34  92 N24G33    29.51F WCI  24
STORM LAKE *   CLOUDY    39  37  93 NE12G17   29.54S WCI  32
$$

IAZ055>058-069>071-079>083-090>094-010500-
   SOUTHWEST IOWA

CITY           SKY/WX    TMP DP  RH WIND       PRES   REMARKS
ATLANTIC *     CLOUDY    43  43 100 NE12      29.45F
AUDUBON *      CLOUDY    41  39  93 N12       29.47F
CLARINDA *     CLOUDY    46  46 100 CALM      29.47F
COUNCIL BLFS * CLOUDY    41  41 100 N12       29.46F
CRESTON *      CLOUDY    45  45 100 E8        29.47F
HARLAN  *      CLOUDY    41  41 100 NE16      29.49F
LAMONI         CLOUDY    48  42  80 SW5       29.46F
RED OAK *      CLOUDY    45  43  93 NE9       29.45F
SHENANDOAH *   CLOUDY    45  45 100 E7        29.45F
$$

IAZ047>049-059>061-072>074-084-010500-
   CENTRAL IOWA

CITY           SKY/WX    TMP DP  RH WIND       PRES   REMARKS
AMES           CLOUDY    43  43 100 NE10      29.49F
ANKENY *       CLOUDY    45  43  93 NE6       29.50S
BOONE *        CLOUDY    43  43 100 NE14      29.48F
CHARITON *     CLOUDY    46  46 100 CALM      29.48F
DES MOINES     LGT RAIN  46  44  93 NE3       29.49F
GRINNELL*      CLOUDY    44  43  96 NE8       29.50R
KNOXVILLE *    LGT RAIN  46  46 100 N6        29.47F
MARSHALLTOWN   CLOUDY    43  42  97 NE12      29.49R
NEWTON *       CLOUDY    45  45 100 E7        29.49R
PELLA *        LGT RAIN  46  46  99 SE3       29.51R
PERRY *        CLOUDY    43  42  96 N10       29.49F FOG
$$

IAZ004>006-015-016-023>025-035-036-010500-
   NORTH CENTRAL IOWA

CITY           SKY/WX    TMP DP  RH WIND       PRES   REMARKS
ALGONA *       LGT RAIN  41  41 100 N23G31    29.49F
CLARION *      CLOUDY    41  41 100 NE18G24   29.50F
ESTHERVILLE    LGT RAIN  37  37 100 N22G28    29.54F WCI  26
FORT DODGE *   CLOUDY    41  37  87 NE8       29.52F
FOREST CITY *  LGT RAIN  41  36  81 NE17G24   29.50F
WEBSTER CITY * CLOUDY    43  39  87 NE9G16    29.49F
IOWA FALLS *   CLOUDY    42  41  95 NE13      29.51F
$$

IAZ007>011-017>019-026>030-037>042-050>054-066-010500-
   NORTHEAST IOWA

CITY           SKY/WX    TMP DP  RH WIND       PRES   REMARKS
CEDAR RAPIDS   PTCLDY    44  32  62 E15       29.48F
CHARLES CITY * LGT RAIN  41  41 100 NE16      29.54F
CLINTON *      LGT RAIN  45  44  97 E15       29.51F
DECORAH *      LGT RAIN  39  39 100 NE7       29.60F WCI  34
DUBUQUE        RAIN      42  41  96 NE14      29.54F FOG
MONTICELLO *   CLOUDY    45  43  93 NE14      29.51F
OELWEIN *      RAIN      41  41 100 NE17G26   29.51F
WATERLOO       CLOUDY    42  40  92 E12       29.51F
$$

IAZ064-065-067-068-078-010500-
   EAST CENTRAL IOWA

CITY           SKY/WX    TMP DP  RH WIND       PRES   REMARKS
DAVENPORT      CLOUDY    46  45  96 NE10      29.50F
IOWA CITY      CLOUDY    47  44  90 NE8       29.50F
MUSCATINE *    PTCLDY    46  46 100 NE6       29.49F
QUAD CITIES    MOCLDY    48  45  89 NE9       29.49F
$$

IAZ062-063-075>077-085>089-095>099-010500-
   SOUTHEAST IOWA

CITY           SKY/WX    TMP DP  RH WIND       PRES   REMARKS
BURLINGTON     LGT RAIN  52  52 100 SW20G25   29.50R FOG
FAIRFIELD *    CLOUDY    48  48 100 S6        29.51R
FORT MADISON * CLOUDY    52  52 100 W9        29.52R
KEOKUK *       CLOUDY    52  48  87 W12G17    29.51F
OSKALOOSA *    DRIZZLE   46  46  97 CALM      29.50S
OTTUMWA        CLOUDY    48  48 100 S6        29.50F
WASHINGTON *   CLOUDY    46  46 100 CALM      29.50S
$$

ABBREVIATIONS USED IN REMARKS
   TC - TEMPERATURES IN CELSIUS
  WCI - WIND CHILL INDEX
   HX - HEAT INDEX
  VSB - VISIBILITY
$$




USA.gov is the U.S. government's official web portal to all federal, state and local government web resources and services.